EW1179 Weather Reports


Display with metric or nautical units.
time (UTC)temp
F
wind
direction
speed
MPH
gust
MPH
rain 1hr
in
rain 24hr
in
rain mn
in
humidity
%
barometer
mb
20260508180110 69 107 1.0 6.0 0.00 0.00 0.00 62 1015.1
20260508174552 67 194 0.0 2.0 0.00 0.00 0.00 65 1015.1
20260508173049 65 88 0.0 2.0 0.00 0.00 0.00 68 1015.2
20260508171540 64 115 0.0 3.0 0.00 0.00 0.00 70 1015.3
20260508170036 62 132 0.0 2.0 0.00 0.00 0.00 74 1015.4
20260508164538 60 132 0.0 0.0 0.00 0.00 0.00 81 1015.6
20260508163028 57 87 0.0 1.0 0.00 0.00 0.00 86 1015.7
20260508161527 55 341 0.0 0.0 0.00 0.00 0.00 90 1015.7
20260508160036 53 198 0.0 0.0 0.00 0.00 0.00 91 1015.9
20260508154521 52 36 0.0 0.0 0.00 0.00 0.00 91 1015.9
20260508153020 52 100 0.0 0.0 0.00 0.00 0.00 91 1016.0
20260508151516 51 56 0.0 0.0 0.00 0.00 0.00 91 1016.0
20260508150013 51 65 0.0 0.0 0.00 0.00 0.00 91 1016.0
20260508144512 50 156 0.0 0.0 0.00 0.00 0.00 90 1015.9
20260508143009 50 111 0.0 0.0 0.00 0.00 0.00 90 1015.8
20260508141510 49 360 0.0 0.0 0.00 0.00 0.00 89 1015.6
20260508140004 49 205 0.0 0.0 0.00 0.00 0.00 89 1015.4
20260508134502 48 205 0.0 0.0 0.00 0.00 0.00 88 1015.2
20260508133103 48 205 0.0 0.0 0.00 0.00 0.00 88 1015.1
20260508131603 48 205 0.0 0.0 0.00 0.00 0.00 87 1015.1
20260508130054 49 205 0.0 0.0 0.00 0.00 0.00 87 1014.9
20260508124552 49 205 0.0 0.0 0.00 0.00 0.00 86 1014.9
20260508123051 49 205 0.0 0.0 0.00 0.00 0.00 86 1014.8
20260508121557 49 205 0.0 0.0 0.00 0.00 0.00 86 1014.9
20260508120056 50 205 0.0 0.0 0.00 0.00 0.00 86 1014.8
20260508114546 50 205 0.0 0.0 0.00 0.00 0.00 85 1014.9
20260508113054 50 205 0.0 0.0 0.00 0.00 0.00 85 1014.8
20260508111554 50 205 0.0 0.0 0.00 0.00 0.00 85 1014.8
20260508110056 51 205 0.0 0.0 0.00 0.00 0.00 84 1014.8
20260508104541 51 205 0.0 0.0 0.00 0.00 0.00 84 1014.7
20260508103049 51 205 0.0 0.0 0.00 0.00 0.00 84 1014.6
20260508101541 52 205 0.0 0.0 0.00 0.00 0.00 84 1014.6
20260508100034 52 205 0.0 0.0 0.00 0.00 0.00 83 1014.6
20260508094537 53 205 0.0 0.0 0.00 0.00 0.00 83 1014.5
20260508093031 53 205 0.0 0.0 0.00 0.00 0.00 83 1014.5
20260508091529 53 205 0.0 0.0 0.00 0.00 0.00 83 1014.4
20260508090035 54 205 0.0 0.0 0.00 0.00 0.00 83 1014.4
20260508084526 54 205 0.0 0.0 0.00 0.00 0.00 82 1014.5
20260508083025 55 205 0.0 0.0 0.00 0.00 0.00 82 1014.5
20260508081522 55 205 0.0 0.0 0.00 0.00 0.00 81 1014.5
20260508080020 55 205 0.0 0.0 0.00 0.00 0.00 81 1014.5
20260508074520 56 205 0.0 0.0 0.00 0.00 0.00 81 1014.6
20260508073023 56 205 0.0 0.0 0.00 0.00 0.00 81 1014.5
20260508071518 57 205 0.0 0.0 0.00 0.00 0.00 80 1014.5
20260508070011 57 205 0.0 0.0 0.00 0.00 0.00 79 1014.4
20260508064520 58 205 0.0 0.0 0.00 0.00 0.00 79 1014.3
20260508063010 58 205 0.0 0.0 0.00 0.00 0.00 78 1014.2
20260508061516 59 205 0.0 0.0 0.00 0.00 0.00 77 1014.3
20260508060012 59 205 0.0 0.0 0.00 0.00 0.00 76 1014.1
20260508054509 60 205 0.0 0.0 0.00 0.00 0.00 75 1014.0
20260508053018 60 205 0.0 0.0 0.00 0.00 0.00 74 1013.9
20260508051508 61 277 0.0 0.0 0.00 0.00 0.00 73 1013.8
20260508050018 61 278 0.0 0.0 0.00 0.00 0.00 72 1013.8
20260508044508 62 278 0.0 0.0 0.00 0.00 0.00 71 1013.8
20260508043008 63 360 0.0 0.0 0.00 0.00 0.00 70 1013.6
20260508041506 63 327 0.0 0.0 0.00 0.00 0.00 69 1013.3
20260508040010 64 259 0.0 0.0 0.00 0.00 0.00 67 1013.1
20260508034506 65 259 0.0 0.0 0.00 0.00 0.00 65 1013.0
20260508033004 66 259 0.0 0.0 0.00 0.00 0.00 64 1012.8
20260508031504 67 259 0.0 0.0 0.00 0.00 0.00 61 1012.8
20260508030004 69 190 0.0 0.0 0.00 0.00 0.00 59 1012.6
20260508024506 69 40 0.0 0.0 0.00 0.00 0.00 59 1012.3
20260508023005 69 210 0.0 2.0 0.00 0.00 0.00 59 1012.1
20260508021502 69 209 0.0 5.0 0.00 0.00 0.00 59 1011.7
20260508020002 70 30 0.0 3.0 0.00 0.00 0.00 57 1011.6
20260508014502 71 244 0.0 7.0 0.00 0.00 0.00 56 1011.7
20260508013001 72 238 0.0 10.0 0.00 0.00 0.00 56 1011.6
20260508011501 73 246 0.0 11.0 0.00 0.00 0.00 54 1011.6
20260508010100 75 243 0.0 10.0 0.00 0.00 0.00 53 1011.5
20260508004602 76 235 1.0 6.0 0.00 0.00 0.00 53 1011.7
20260508003107 76 264 1.0 7.0 0.00 0.00 0.00 53 1011.6
20260508001559 76 252 1.0 7.0 0.00 0.00 0.00 52 1011.7
20260508000100 77 244 1.0 15.0 0.00 0.00 0.00 52 1011.7
20260507234557 77 326 0.0 9.0 0.00 0.00 0.00 50 1011.5
20260507233056 79 241 0.0 6.0 0.00 0.00 0.00 50 1011.7
20260507231555 80 216 1.0 7.0 0.00 0.00 0.00 48 1011.8
20260507230055 80 229 0.0 4.0 0.00 0.00 0.00 48 1011.8
20260507224611 81 315 0.0 7.0 0.00 0.00 0.00 48 1011.9
20260507223056 81 282 0.0 6.0 0.00 0.00 0.00 48 1012.1
20260507221551 82 225 1.0 7.0 0.00 0.00 0.00 47 1012.2
20260507220048 82 216 0.0 4.0 0.00 0.00 0.00 47 1012.3
20260507214551 83 64 0.0 5.0 0.00 0.00 0.00 47 1012.6
20260507213045 83 209 0.0 5.0 0.00 0.00 0.00 47 1012.7
20260507211600 84 200 0.0 5.0 0.00 0.00 0.00 46 1012.9
20260507210042 87 244 0.0 3.0 0.00 0.00 0.00 41 1013.1
20260507204540 87 269 0.0 0.0 0.00 0.00 0.00 40 1013.2
20260507203036 85 94 0.0 0.0 0.00 0.00 0.00 39 1013.3
20260507201535 86 204 0.0 5.0 0.00 0.00 0.00 39 1013.6
20260507200031 85 92 0.0 2.0 0.00 0.00 0.00 43 1013.6
20260507194530 84 117 0.0 3.0 0.00 0.00 0.00 43 1013.8
20260507193023 83 261 0.0 0.0 0.00 0.00 0.00 44 1014.0
20260507191520 82 245 0.0 4.0 0.00 0.00 0.00 45 1014.2
20260507190015 81 263 0.0 0.0 0.00 0.00 0.00 49 1014.4
20260507184514 79 328 0.0 2.0 0.00 0.00 0.00 50 1014.7
20260507183007 78 52 0.0 1.0 0.00 0.00 0.00 52 1014.7